Hourly Weather Avhimki

Today, 16 April, Friday

Time Temperature Precipitation Wind Pressure Humidity
00:00 +8°C° 0.2 mm 3 mps 743 mmHg 94%
01:00 +8°C° 0.2 mm 3 mps 743 mmHg 95%
02:00 +9°C° 0 mm 3 mps 742 mmHg 95%
03:00 +8°C° 0.1 mm 3 mps 742 mmHg 95%
04:00 +8°C° 0.1 mm 3 mps 743 mmHg 94%
05:00 +7°C° 0.1 mm 4 mps 743 mmHg 93%
06:00 +8°C° 0 mm 4 mps 743 mmHg 89%
07:00 +9°C° 0 mm 5 mps 743 mmHg 85%
08:00 +10°C° 0 mm 6 mps 743 mmHg 81%
09:00 +11°C° 0.1 mm 6 mps 743 mmHg 73%
10:00 +12°C° 0.1 mm 7 mps 743 mmHg 66%
11:00 +14°C° 0.1 mm 7 mps 744 mmHg 58%
12:00 +14°C° 0.1 mm 7 mps 744 mmHg 58%
13:00 +12°C° 0.1 mm 7 mps 744 mmHg 57%
14:00 +12°C° 0.1 mm 7 mps 744 mmHg 56%
15:00 +13°C° 0 mm 6 mps 744 mmHg 58%
16:00 +13°C° 0 mm 5 mps 744 mmHg 60%
17:00 +13°C° 0 mm 4 mps 744 mmHg 62%
18:00 +12°C° 0 mm 4 mps 744 mmHg 68%
19:00 +10°C° 0 mm 3 mps 745 mmHg 74%
20:00 +9°C° 0 mm 2 mps 745 mmHg 80%
21:00 +9°C° 0 mm 2 mps 745 mmHg 82%
22:00 +8°C° 0 mm 3 mps 745 mmHg 85%
23:00 +7°C° 0 mm 3 mps 745 mmHg 87%

Tomorrow, 17 April, Saturday

Time Temperature Precipitation Wind Pressure Humidity
00:00 +7°C° 0 mm 2 mps 746 mmHg 88%
01:00 +7°C° 0 mm 2 mps 746 mmHg 90%
02:00 +6°C° 0 mm 2 mps 746 mmHg 91%
03:00 +6°C° 0 mm 2 mps 746 mmHg 92%
04:00 +6°C° 0 mm 2 mps 746 mmHg 92%
05:00 +5°C° 0 mm 2 mps 746 mmHg 92%
06:00 +7°C° 0 mm 2 mps 747 mmHg 87%
07:00 +8°C° 0 mm 3 mps 747 mmHg 81%
08:00 +9°C° 0 mm 3 mps 748 mmHg 75%
09:00 +10°C° 0 mm 3 mps 748 mmHg 69%
10:00 +12°C° 0 mm 3 mps 748 mmHg 62%
11:00 +13°C° 0 mm 3 mps 748 mmHg 56%
12:00 +13°C° 0 mm 3 mps 747 mmHg 54%
13:00 +14°C° 0 mm 4 mps 747 mmHg 53%
14:00 +14°C° 0 mm 4 mps 747 mmHg 52%
15:00 +13°C° 0.8 mm 5 mps 747 mmHg 64%
16:00 +10°C° 0.8 mm 5 mps 747 mmHg 76%
17:00 +9°C° 0.8 mm 6 mps 747 mmHg 89%
18:00 +9°C° 0.3 mm 5 mps 747 mmHg 89%
19:00 +9°C° 0.3 mm 5 mps 746 mmHg 90%
20:00 +10°C° 0.3 mm 4 mps 746 mmHg 91%
21:00 +9°C° 0.4 mm 5 mps 746 mmHg 90%
22:00 +9°C° 0.4 mm 5 mps 746 mmHg 88%
23:00 +9°C° 0.4 mm 5 mps 746 mmHg 87%

Day after tomorrow, 18 April, Sunday

Time Temperature Precipitation Wind Pressure Humidity
00:00 +8°C° 0 mm 5 mps 746 mmHg 86%
01:00 +8°C° 0 mm 5 mps 746 mmHg 86%
02:00 +7°C° 0 mm 6 mps 746 mmHg 85%
03:00 +7°C° 0 mm 6 mps 746 mmHg 84%
04:00 +7°C° 0 mm 6 mps 746 mmHg 84%
05:00 +5°C° 0 mm 6 mps 746 mmHg 83%
06:00 +5°C° 0 mm 6 mps 746 mmHg 80%
07:00 +5°C° 0 mm 7 mps 747 mmHg 78%
08:00 +5°C° 0 mm 7 mps 747 mmHg 75%
09:00 +6°C° 0 mm 7 mps 747 mmHg 71%
10:00 +8°C° 0 mm 7 mps 747 mmHg 66%
11:00 +8°C° 0 mm 7 mps 748 mmHg 62%
12:00 +9°C° 0 mm 6 mps 748 mmHg 61%
13:00 +9°C° 0 mm 6 mps 748 mmHg 59%
14:00 +10°C° 0 mm 6 mps 748 mmHg 58%
15:00 +10°C° 0.1 mm 6 mps 748 mmHg 61%
16:00 +9°C° 0.1 mm 6 mps 748 mmHg 65%
17:00 +9°C° 0.1 mm 6 mps 748 mmHg 69%
18:00 +8°C° 0 mm 6 mps 748 mmHg 73%
19:00 +7°C° 0 mm 5 mps 748 mmHg 78%
20:00 +6°C° 0 mm 5 mps 749 mmHg 83%
21:00 +5°C° 0 mm 5 mps 749 mmHg 85%
22:00 +5°C° 0 mm 4 mps 749 mmHg 88%
23:00 +4°C° 0 mm 4 mps 749 mmHg 91%

19 April, Monday

Time Temperature Precipitation Wind Pressure Humidity
00:00 +4°C° 0 mm 4 mps 749 mmHg 88%
01:00 +4°C° 0 mm 4 mps 748 mmHg 86%
02:00 +4°C° 0 mm 4 mps 748 mmHg 84%
03:00 +4°C° 0 mm 4 mps 748 mmHg 84%
04:00 +4°C° 0 mm 4 mps 748 mmHg 84%
05:00 +4°C° 0 mm 4 mps 748 mmHg 85%
06:00 +5°C° 0 mm 4 mps 748 mmHg 85%
07:00 +5°C° 0 mm 4 mps 748 mmHg 84%
08:00 +5°C° 0 mm 5 mps 748 mmHg 84%
09:00 +6°C° 0 mm 5 mps 748 mmHg 81%
10:00 +6°C° 0 mm 5 mps 748 mmHg 77%
11:00 +7°C° 0 mm 5 mps 748 mmHg 74%
12:00 +7°C° 0 mm 5 mps 747 mmHg 76%
13:00 +7°C° 0 mm 5 mps 747 mmHg 78%
14:00 +7°C° 0 mm 5 mps 747 mmHg 80%
15:00 +7°C° 0 mm 5 mps 747 mmHg 82%
16:00 +6°C° 0 mm 5 mps 747 mmHg 84%
17:00 +6°C° 0 mm 5 mps 746 mmHg 86%
18:00 +6°C° 0.2 mm 5 mps 746 mmHg 87%
19:00 +6°C° 0.2 mm 5 mps 746 mmHg 87%
20:00 +6°C° 0.2 mm 5 mps 745 mmHg 88%
21:00 +6°C° 0.1 mm 5 mps 745 mmHg 89%
22:00 +6°C° 0.1 mm 5 mps 744 mmHg 89%
23:00 +6°C° 0.1 mm 5 mps 744 mmHg 90%

20 April, Tuesday

Time Temperature Precipitation Wind Pressure Humidity
00:00 +5°C° 0.1 mm 5 mps 744 mmHg 91%
01:00 +5°C° 0.1 mm 4 mps 743 mmHg 93%
02:00 +5°C° 0.1 mm 4 mps 743 mmHg 94%
03:00 +5°C° 0.2 mm 5 mps 743 mmHg 93%
04:00 +5°C° 0.2 mm 5 mps 742 mmHg 91%
05:00 +5°C° 0.2 mm 6 mps 742 mmHg 89%
06:00 +5°C° 0.1 mm 7 mps 741 mmHg 88%
07:00 +5°C° 0.1 mm 7 mps 741 mmHg 86%
08:00 +5°C° 0.1 mm 7 mps 740 mmHg 85%
09:00 +5°C° 0.2 mm 7 mps 740 mmHg 86%
10:00 +5°C° 0.2 mm 8 mps 739 mmHg 87%
11:00 +5°C° 0.2 mm 8 mps 738 mmHg 88%
12:00 +3°C° 1.5 mm 9 mps 737 mmHg 89%
13:00 +3°C° 1.5 mm 9 mps 736 mmHg 90%
14:00 +3°C° 1.5 mm 10 mps 735 mmHg 91%
15:00 +2°C° 2.1 mm 10 mps 734 mmHg 93%
16:00 +1°C° 2.1 mm 9 mps 734 mmHg 94%
17:00 +1°C° 2.1 mm 9 mps 733 mmHg 96%
18:00 0°C° 1.3 mm 8 mps 732 mmHg 96%
19:00 0°C° 1.3 mm 8 mps 732 mmHg 96%
20:00 -1°C° 1.3 mm 7 mps 732 mmHg 96%
21:00 -1°C° 0.6 mm 6 mps 731 mmHg 96%
22:00 -1°C° 0.6 mm 6 mps 731 mmHg 97%
23:00 0°C° 0.6 mm 5 mps 731 mmHg 97%

21 April, Wednesday

Time Temperature Precipitation Wind Pressure Humidity
00:00 0°C° 0.6 mm 5 mps 731 mmHg 97%
01:00 0°C° 0.6 mm 4 mps 731 mmHg 97%
02:00 +1°C° 0.6 mm 4 mps 730 mmHg 97%
03:00 +1°C° 1 mm 4 mps 730 mmHg 97%
04:00 +1°C° 1 mm 4 mps 730 mmHg 97%
05:00 +2°C° 1 mm 3 mps 730 mmHg 98%
06:00 +1°C° 0.6 mm 4 mps 731 mmHg 97%
07:00 +1°C° 0.6 mm 4 mps 731 mmHg 97%
08:00 +1°C° 0.6 mm 4 mps 731 mmHg 97%
09:00 +1°C° 0.3 mm 4 mps 732 mmHg 97%
10:00 +1°C° 0.3 mm 5 mps 732 mmHg 97%
11:00 +1°C° 0.3 mm 5 mps 733 mmHg 96%
12:00 +1°C° 0.1 mm 5 mps 733 mmHg 96%
13:00 +1°C° 0.1 mm 5 mps 734 mmHg 96%
14:00 +2°C° 0.1 mm 6 mps 735 mmHg 96%
15:00 +2°C° 0.1 mm 6 mps 735 mmHg 96%
16:00 +2°C° 0.1 mm 6 mps 736 mmHg 96%
17:00 +2°C° 0.1 mm 6 mps 737 mmHg 95%
18:00 +3°C° 0 mm 6 mps 738 mmHg 94%
19:00 +3°C° 0 mm 5 mps 738 mmHg 92%
20:00 +3°C° 0 mm 5 mps 739 mmHg 90%
21:00 +4°C° 0 mm 4 mps 739 mmHg 91%
22:00 +4°C° 0 mm 4 mps 740 mmHg 91%
23:00 +3°C° 0 mm 4 mps 740 mmHg 92%
Show more